Location: Unspecified
(0.0000°N, 0.0000°E)
Time: 17:47:16
(UTC+00:00)

SRMSAT - Pass Details

Date: 22 July 2019
Orbit: 848 x 865 km, 20.0° (Epoch: 07 December)

Event Time Altitude Azimuth Distance (km) Brightness Sun altitude
Rises 21:02:59 0° 303° (WNW) 3,424 ? -40.8°
Reaches altitude 10° 21:07:54 10° 338° (NNW) 2,484 ? -41.9°
Enters shadow 21:08:47 11° 347° (NNW) 2,426 ? -42.1°
